Main page
METAR-TAF:

METAR-TAF

Airports :

Belo Horizonte/Pampulha – Carlos Drummond de Andrade Airport

Belo Horizonte, Minas Gerais, Brazil

latitude: 19-51S, longitude: 043-57W, elevation: 785 m

Current weather observation

The report was made 1 hour and 19 minutes ago, at 09:00 UTC
Wind 6 kt from the East
Temperature 22°C
Humidity 69%
Pressure 1016 hPa
Visibility 10 km or more
Few clouds at a height of 2000 ft

METAR: SBBH 140900Z 10006KT 9999 FEW020 22/16 Q1016

Time: 08:19 (10:19 UTC)


TAF: missing

Weather observations and forecasts of more than 4000 airports (METAR and TAF reports).

The available stations are represented by yellow and red dots on the map.

Hover mouse over dot to see the name of the station.

Then click to see weather observations and forecasts.

To change the map : click on the green buttons with a black cross to zoom in, on the green button with a dash to zoom out, or on the green arrows for adjacent maps.


METAR-TAF: